Time,TemperatureF,DewpointF,PressureIn,WindDirection,WindDirectionDegrees,WindSpeedMPH,WindSpeedGustMPH,Humidity,HourlyPrecipIn,Conditions,Clouds,dailyrainin,SoftwareType,DateUTC
2013-02-10 00:00:00,39.7,26.6,30.14,SSW,203,0.0,0.0,59,0.00,,,0.00,WUHU216TE923,2013-02-10 05:00:00,
2013-02-10 00:05:00,39.6,26.5,30.14,SSW,203,0.0,0.0,59,0.00,,,0.00,WUHU216TE923,2013-02-10 05:05:00,
2013-02-10 00:10:00,39.6,26.5,30.13,SSE,158,0.0,0.0,59,0.00,,,0.00,WUHU216TE923,2013-02-10 05:10:00,
2013-02-10 00:15:00,39.6,26.5,30.13,SSE,158,0.0,0.0,59,0.00,,,0.00,WUHU216TE923,2013-02-10 05:15:00,
2013-02-10 00:20:00,39.6,26.9,30.13,SSE,158,0.0,0.0,60,0.00,,,0.00,WUHU216TE923,2013-02-10 05:20:00,
2013-02-10 00:25:00,39.7,27.0,30.13,SSE,158,0.0,0.0,60,0.00,,,0.00,WUHU216TE923,2013-02-10 05:25:00,
2013-02-10 00:30:00,39.9,27.2,30.13,SSE,158,0.0,0.0,60,0.00,,,0.00,WUHU216TE923,2013-02-10 05:30:00,
2013-02-10 00:35:00,40.1,27.8,30.13,SSE,158,0.0,0.0,61,0.00,,,0.00,WUHU216TE923,2013-02-10 05:35:00,
2013-02-10 00:40:00,40.1,27.8,30.13,SSE,158,0.0,0.0,61,0.00,,,0.00,WUHU216TE923,2013-02-10 05:40:00,
2013-02-10 00:45:00,40.1,27.8,30.13,SSE,158,0.0,0.0,61,0.00,,,0.00,WUHU216TE923,2013-02-10 05:45:00,
2013-02-10 00:50:00,40.1,27.8,30.14,SSE,158,0.0,0.0,61,0.00,,,0.00,WUHU216TE923,2013-02-10 05:50:00,
2013-02-10 00:55:00,39.9,27.6,30.14,SSE,158,0.0,0.0,61,0.00,,,0.00,WUHU216TE923,2013-02-10 05:55:00,
2013-02-10 01:00:00,39.6,27.3,30.14,SSE,158,0.0,0.0,61,0.00,,,0.00,WUHU216TE923,2013-02-10 06:00:00,
2013-02-10 01:05:00,39.7,27.8,30.14,SSW,203,0.0,0.0,62,0.00,,,0.00,WUHU216TE923,2013-02-10 06:05:00,
2013-02-10 01:10:00,39.4,27.5,30.13,SSW,203,0.0,0.0,62,0.00,,,0.00,WUHU216TE923,2013-02-10 06:10:00,
2013-02-10 01:15:00,39.0,27.2,30.13,SSW,203,0.0,0.0,62,0.00,,,0.00,WUHU216TE923,2013-02-10 06:15:00,
2013-02-10 01:20:00,39.0,26.8,30.13,SSW,203,0.0,0.0,61,0.00,,,0.00,WUHU216TE923,2013-02-10 06:20:00,
2013-02-10 01:25:00,39.0,27.2,30.13,SSW,203,0.0,0.0,62,0.00,,,0.00,WUHU216TE923,2013-02-10 06:25:00,
2013-02-10 01:30:00,38.8,27.0,30.11,East,90,0.0,0.0,62,0.00,,,0.00,WUHU216TE923,2013-02-10 06:30:00,
2013-02-10 01:35:00,38.8,27.0,30.11,NE,45,0.0,0.0,62,0.00,,,0.00,WUHU216TE923,2013-02-10 06:35:00,
2013-02-10 01:40:00,39.0,26.8,30.11,NE,45,0.0,0.0,61,0.00,,,0.00,WUHU216TE923,2013-02-10 06:40:00,
2013-02-10 01:45:00,39.0,26.8,30.11,NE,45,0.0,0.0,61,0.00,,,0.00,WUHU216TE923,2013-02-10 06:45:00,
2013-02-10 01:50:00,38.8,27.0,30.14,NE,45,0.0,0.0,62,0.00,,,0.00,WUHU216TE923,2013-02-10 06:50:00,
2013-02-10 01:55:00,39.0,27.2,30.14,NE,45,0.0,0.0,62,0.00,,,0.00,WUHU216TE923,2013-02-10 06:55:00,
2013-02-10 02:00:00,39.0,27.2,30.14,NW,315,0.0,0.0,62,0.00,,,0.00,WUHU216TE923,2013-02-10 07:00:00,
2013-02-10 02:05:00,39.2,27.3,30.14,NNE,23,0.0,0.0,62,0.00,,,0.00,WUHU216TE923,2013-02-10 07:05:00,
2013-02-10 02:10:00,39.2,27.7,30.14,NW,315,0.0,0.0,63,0.00,,,0.00,WUHU216TE923,2013-02-10 07:10:00,
2013-02-10 02:15:00,39.2,27.7,30.14,NW,315,0.0,0.0,63,0.00,,,0.00,WUHU216TE923,2013-02-10 07:15:00,
2013-02-10 02:20:00,39.2,27.7,30.14,SW,225,0.0,0.0,63,0.00,,,0.00,WUHU216TE923,2013-02-10 07:20:00,
2013-02-10 02:25:00,39.2,27.7,30.14,ESE,113,0.0,0.0,63,0.00,,,0.00,WUHU216TE923,2013-02-10 07:25:00,
2013-02-10 02:30:00,39.2,27.7,30.14,SE,135,0.0,0.0,63,0.00,,,0.00,WUHU216TE923,2013-02-10 07:30:00,
2013-02-10 02:35:00,39.4,28.3,30.14,West,270,0.0,0.0,64,0.00,,,0.00,WUHU216TE923,2013-02-10 07:35:00,
2013-02-10 02:40:00,39.6,28.5,30.14,SE,135,0.0,0.0,64,0.00,,,0.00,WUHU216TE923,2013-02-10 07:40:00,
2013-02-10 02:45:00,39.6,28.5,30.14,ESE,113,0.0,0.0,64,0.00,,,0.00,WUHU216TE923,2013-02-10 07:45:00,
2013-02-10 02:50:00,39.7,28.6,30.11,NNE,23,0.0,0.0,64,0.00,,,0.00,WUHU216TE923,2013-02-10 07:50:00,
2013-02-10 02:55:00,40.1,28.6,30.11,ESE,113,0.1,0.1,63,0.00,,,0.00,WUHU216TE923,2013-02-10 07:55:00,
2013-02-10 03:00:00,40.5,28.6,30.11,South,180,0.5,0.5,62,0.00,,,0.00,WUHU216TE923,2013-02-10 08:00:00,
2013-02-10 03:05:00,40.3,28.4,30.11,SW,225,0.4,0.5,62,0.00,,,0.00,WUHU216TE923,2013-02-10 08:05:00,
2013-02-10 03:10:00,40.5,28.6,30.13,NW,315,0.1,0.4,62,0.00,,,0.00,WUHU216TE923,2013-02-10 08:10:00,
2013-02-10 03:15:00,40.5,28.6,30.13,NW,315,0.1,0.1,62,0.00,,,0.00,WUHU216TE923,2013-02-10 08:15:00,
2013-02-10 03:20:00,41.4,28.2,30.13,ENE,68,0.2,0.2,59,0.00,,,0.00,WUHU216TE923,2013-02-10 08:20:00,
2013-02-10 03:25:00,41.5,28.3,30.13,ENE,68,0.1,0.2,59,0.00,,,0.00,WUHU216TE923,2013-02-10 08:25:00,
2013-02-10 03:30:00,42.4,28.7,30.14,East,90,0.1,1.2,58,0.00,,,0.00,WUHU216TE923,2013-02-10 08:30:00,
2013-02-10 03:35:00,42.4,28.7,30.14,SE,135,0.2,1.2,58,0.00,,,0.00,WUHU216TE923,2013-02-10 08:35:00,
2013-02-10 03:40:00,42.6,28.9,30.14,SE,135,0.2,2.3,58,0.00,,,0.00,WUHU216TE923,2013-02-10 08:40:00,
2013-02-10 03:45:00,43.2,27.7,30.14,ESE,113,0.4,2.3,54,0.00,,,0.00,WUHU216TE923,2013-02-10 08:45:00,
2013-02-10 03:50:00,44.1,27.6,30.14,ESE,113,1.3,4.0,52,0.00,,,0.00,WUHU216TE923,2013-02-10 08:50:00,
2013-02-10 03:55:00,45.3,27.2,30.14,SE,135,1.9,4.0,49,0.00,,,0.00,WUHU216TE923,2013-02-10 08:55:00,
2013-02-10 04:00:00,47.3,25.2,30.14,South,180,3.1,3.8,42,0.00,,,0.00,WUHU216TE923,2013-02-10 09:00:00,
2013-02-10 04:05:00,46.9,25.4,30.14,SSW,203,3.2,3.2,43,0.00,,,0.00,WUHU216TE923,2013-02-10 09:05:00,
2013-02-10 04:10:00,46.8,25.9,30.13,ESE,113,2.0,3.2,44,0.00,,,0.00,WUHU216TE923,2013-02-10 09:10:00,
2013-02-10 04:15:00,46.8,25.3,30.13,SE,135,1.2,2.0,43,0.00,,,0.00,WUHU216TE923,2013-02-10 09:15:00,
2013-02-10 04:20:00,46.6,25.7,30.13,SE,135,0.7,1.2,44,0.00,,,0.00,WUHU216TE923,2013-02-10 09:20:00,
2013-02-10 04:25:00,46.4,25.5,30.13,South,180,0.6,0.7,44,0.00,,,0.00,WUHU216TE923,2013-02-10 09:25:00,
2013-02-10 04:30:00,46.4,25.5,30.12,SW,225,0.5,1.9,44,0.00,,,0.00,WUHU216TE923,2013-02-10 09:30:00,
2013-02-10 04:35:00,46.9,25.4,30.12,SSE,158,0.9,3.3,43,0.00,,,0.00,WUHU216TE923,2013-02-10 09:35:00,
2013-02-10 04:40:00,47.5,24.2,30.12,SW,225,1.5,3.3,40,0.00,,,0.00,WUHU216TE923,2013-02-10 09:40:00,
2013-02-10 04:45:00,47.7,24.4,30.12,SW,225,1.7,2.0,40,0.00,,,0.00,WUHU216TE923,2013-02-10 09:45:00,
2013-02-10 04:50:00,47.5,24.2,30.12,ESE,113,1.5,1.7,40,0.00,,,0.00,WUHU216TE923,2013-02-10 09:50:00,
2013-02-10 04:55:00,47.5,24.2,30.12,South,180,0.9,1.5,40,0.00,,,0.00,WUHU216TE923,2013-02-10 09:55:00,
2013-02-10 05:00:00,48.0,24.0,30.12,South,180,1.4,5.8,39,0.00,,,0.00,WUHU216TE923,2013-02-10 10:00:00,
2013-02-10 05:05:00,47.8,23.8,30.12,South,180,1.3,5.8,39,0.00,,,0.00,WUHU216TE923,2013-02-10 10:05:00,
2013-02-10 05:10:00,47.3,24.0,30.13,ESE,113,0.7,1.3,40,0.00,,,0.00,WUHU216TE923,2013-02-10 10:10:00,
2013-02-10 05:15:00,47.1,23.8,30.13,SE,135,0.1,0.7,40,0.00,,,0.00,WUHU216TE923,2013-02-10 10:15:00,
2013-02-10 05:20:00,47.5,23.6,30.13,SSE,158,0.6,0.6,39,0.00,,,0.00,WUHU216TE923,2013-02-10 10:20:00,
2013-02-10 05:25:00,47.5,23.6,30.13,SE,135,1.0,1.3,39,0.00,,,0.00,WUHU216TE923,2013-02-10 10:25:00,
2013-02-10 05:30:00,47.5,22.9,30.13,South,180,0.9,2.2,38,0.00,,,0.00,WUHU216TE923,2013-02-10 10:30:00,
2013-02-10 05:35:00,47.5,22.9,30.13,SSW,203,0.9,3.0,38,0.00,,,0.00,WUHU216TE923,2013-02-10 10:35:00,
2013-02-10 05:40:00,47.8,22.6,30.13,NE,45,2.0,3.0,37,0.00,,,0.00,WUHU216TE923,2013-02-10 10:40:00,
2013-02-10 05:45:00,47.7,22.5,30.13,East,90,2.0,2.8,37,0.00,,,0.00,WUHU216TE923,2013-02-10 10:45:00,
2013-02-10 05:50:00,47.5,21.6,30.13,South,180,1.7,2.0,36,0.00,,,0.00,WUHU216TE923,2013-02-10 10:50:00,
2013-02-10 05:55:00,47.5,21.6,30.13,South,180,1.5,2.0,36,0.00,,,0.00,WUHU216TE923,2013-02-10 10:55:00,
2013-02-10 06:00:00,47.7,21.1,30.13,SSE,158,1.4,3.3,35,0.00,,,0.00,WUHU216TE923,2013-02-10 11:00:00,
2013-02-10 06:05:00,47.5,21.6,30.13,SSE,158,1.4,3.3,36,0.00,,,0.00,WUHU216TE923,2013-02-10 11:05:00,
2013-02-10 06:10:00,47.5,21.0,30.13,SSE,158,1.6,3.0,35,0.00,,,0.00,WUHU216TE923,2013-02-10 11:10:00,
2013-02-10 06:15:00,47.5,21.0,30.13,SSE,158,1.6,3.0,35,0.00,,,0.00,WUHU216TE923,2013-02-10 11:15:00,
2013-02-10 06:20:00,47.3,20.8,30.13,South,180,1.1,3.0,35,0.00,,,0.00,WUHU216TE923,2013-02-10 11:20:00,
2013-02-10 06:25:00,47.1,21.3,30.13,ESE,113,0.9,1.6,36,0.00,,,0.00,WUHU216TE923,2013-02-10 11:25:00,
2013-02-10 06:30:00,46.9,21.1,30.13,North,0,0.3,1.5,36,0.00,,,0.00,WUHU216TE923,2013-02-10 11:30:00,
2013-02-10 06:35:00,46.8,21.0,30.13,NNE,23,0.4,1.5,36,0.00,,,0.00,WUHU216TE923,2013-02-10 11:35:00,
2013-02-10 06:40:00,46.6,20.8,30.13,WSW,248,0.4,1.4,36,0.00,,,0.00,WUHU216TE923,2013-02-10 11:40:00,
2013-02-10 06:45:00,46.6,20.8,30.13,South,180,0.3,1.4,36,0.00,,,0.00,WUHU216TE923,2013-02-10 11:45:00,
2013-02-10 06:50:00,46.4,21.3,30.13,South,180,0.2,0.3,37,0.00,,,0.00,WUHU216TE923,2013-02-10 11:50:00,
2013-02-10 06:56:00,45.5,21.1,30.13,South,180,0.0,0.0,38,0.00,,,0.00,WUHU216TE923,2013-02-10 11:56:00,
2013-02-10 07:00:00,45.5,21.1,30.13,South,180,0.0,0.0,38,0.00,,,0.00,WUHU216TE923,2013-02-10 12:00:00,
2013-02-10 07:05:00,45.5,21.8,30.14,South,180,0.0,0.0,39,0.00,,,0.00,WUHU216TE923,2013-02-10 12:05:00,
2013-02-10 07:10:00,45.5,21.8,30.14,South,180,0.0,0.0,39,0.00,,,0.00,WUHU216TE923,2013-02-10 12:10:00,
2013-02-10 07:15:00,45.5,21.8,30.14,SE,135,0.3,0.3,39,0.00,,,0.00,WUHU216TE923,2013-02-10 12:15:00,
2013-02-10 07:20:00,45.9,21.5,30.14,SE,135,1.1,1.1,38,0.00,,,0.00,WUHU216TE923,2013-02-10 12:20:00,
2013-02-10 07:25:00,45.7,21.3,30.14,SE,135,1.0,1.1,38,0.00,,,0.00,WUHU216TE923,2013-02-10 12:25:00,
2013-02-10 07:30:00,45.7,21.3,30.13,SE,135,0.2,1.0,38,0.00,,,0.00,WUHU216TE923,2013-02-10 12:30:00,
2013-02-10 07:35:00,45.7,21.3,30.13,NNE,23,0.4,0.4,38,0.00,,,0.00,WUHU216TE923,2013-02-10 12:35:00,
2013-02-10 07:40:00,45.9,21.5,30.13,SSE,158,0.7,1.3,38,0.00,,,0.00,WUHU216TE923,2013-02-10 12:40:00,
2013-02-10 07:45:00,45.9,21.5,30.13,South,180,0.6,1.3,38,0.00,,,0.00,WUHU216TE923,2013-02-10 12:45:00,
2013-02-10 07:50:00,45.9,21.5,30.12,West,270,0.6,2.4,38,0.00,,,0.00,WUHU216TE923,2013-02-10 12:50:00,
2013-02-10 07:55:00,45.9,21.5,30.12,SE,135,0.6,2.4,38,0.00,,,0.00,WUHU216TE923,2013-02-10 12:55:00,
2013-02-10 08:00:00,45.9,21.5,30.12,South,180,1.2,2.9,38,0.00,,,0.00,WUHU216TE923,2013-02-10 13:00:00,
2013-02-10 08:05:00,46.2,21.1,30.12,WSW,248,1.6,3.0,37,0.00,,,0.00,WUHU216TE923,2013-02-10 13:05:00,
2013-02-10 08:10:00,46.8,20.3,30.12,SSW,203,2.3,5.0,35,0.00,,,0.00,WUHU216TE923,2013-02-10 13:10:00,
2013-02-10 08:15:00,46.9,20.4,30.12,SE,135,2.5,5.0,35,0.00,,,0.00,WUHU216TE923,2013-02-10 13:15:00,
2013-02-10 08:20:00,46.8,20.3,30.12,South,180,2.4,3.5,35,0.00,,,0.00,WUHU216TE923,2013-02-10 13:20:00,
2013-02-10 08:25:00,46.8,20.3,30.12,SSE,158,2.2,3.5,35,0.00,,,0.00,WUHU216TE923,2013-02-10 13:25:00,
2013-02-10 08:30:00,46.9,20.4,30.12,SSE,158,2.0,2.7,35,0.00,,,0.00,WUHU216TE923,2013-02-10 13:30:00,
2013-02-10 08:35:00,46.9,20.4,30.12,SE,135,2.2,2.6,35,0.00,,,0.00,WUHU216TE923,2013-02-10 13:35:00,
2013-02-10 08:40:00,47.7,21.1,30.12,South,180,2.1,2.6,35,0.00,,,0.00,WUHU216TE923,2013-02-10 13:40:00,
2013-02-10 08:45:00,47.8,21.2,30.12,SW,225,2.3,3.6,35,0.00,,,0.00,WUHU216TE923,2013-02-10 13:45:00,
2013-02-10 08:50:00,48.2,20.9,30.16,WNW,293,2.9,3.7,34,0.00,,,0.00,WUHU216TE923,2013-02-10 13:50:00,
2013-02-10 08:55:00,48.6,21.2,30.16,SE,135,3.0,3.8,34,0.00,,,0.00,WUHU216TE923,2013-02-10 13:55:00,
2013-02-10 09:00:00,49.1,21.7,30.16,South,180,3.3,5.2,34,0.00,,,0.00,WUHU216TE923,2013-02-10 14:00:00,
2013-02-10 09:05:00,48.7,20.6,30.16,South,180,3.5,5.2,33,0.00,,,0.00,WUHU216TE923,2013-02-10 14:05:00,
2013-02-10 09:10:00,48.6,20.5,30.16,ESE,113,3.4,4.0,33,0.00,,,0.00,WUHU216TE923,2013-02-10 14:10:00,
2013-02-10 09:15:00,48.7,20.6,30.16,South,180,3.1,4.0,33,0.00,,,0.00,WUHU216TE923,2013-02-10 14:15:00,
2013-02-10 09:20:00,48.7,20.6,30.16,WSW,248,2.8,3.1,33,0.00,,,0.00,WUHU216TE923,2013-02-10 14:20:00,
2013-02-10 09:25:00,48.9,20.8,30.16,ESE,113,2.8,4.7,33,0.00,,,0.00,WUHU216TE923,2013-02-10 14:25:00,
2013-02-10 09:30:00,48.9,20.1,30.16,South,180,2.7,5.0,32,0.00,,,0.00,WUHU216TE923,2013-02-10 14:30:00,
2013-02-10 09:35:00,48.7,19.9,30.16,SE,135,2.9,5.1,32,0.00,,,0.00,WUHU216TE923,2013-02-10 14:35:00,
2013-02-10 09:40:00,48.9,20.1,30.16,ESE,113,3.3,5.1,32,0.00,,,0.00,WUHU216TE923,2013-02-10 14:40:00,
2013-02-10 09:45:00,49.5,21.3,30.16,SW,225,2.1,3.3,33,0.00,,,0.00,WUHU216TE923,2013-02-10 14:45:00,
2013-02-10 09:50:00,49.8,21.6,30.16,ENE,68,1.4,2.1,33,0.00,,,0.00,WUHU216TE923,2013-02-10 14:50:00,
2013-02-10 09:55:00,49.8,21.6,30.16,SSW,203,1.9,2.1,33,0.00,,,0.00,WUHU216TE923,2013-02-10 14:55:00,
2013-02-10 10:00:00,50.0,21.0,30.16,ESE,113,2.6,3.8,32,0.00,,,0.00,WUHU216TE923,2013-02-10 15:00:00,
2013-02-10 10:05:00,50.0,21.0,30.16,ENE,68,2.4,6.0,32,0.00,,,0.00,WUHU216TE923,2013-02-10 15:05:00,
2013-02-10 10:10:00,50.0,20.3,30.14,South,180,3.3,10.3,31,0.00,,,0.00,WUHU216TE923,2013-02-10 15:10:00,
2013-02-10 10:15:00,50.0,20.3,30.14,ESE,113,4.1,10.3,31,0.00,,,0.00,WUHU216TE923,2013-02-10 15:15:00,
2013-02-10 10:20:00,50.0,19.5,30.14,ESE,113,4.9,14.8,30,0.00,,,0.00,WUHU216TE923,2013-02-10 15:20:00,
2013-02-10 10:25:00,50.0,19.5,30.14,ESE,113,5.2,14.8,30,0.00,,,0.00,WUHU216TE923,2013-02-10 15:25:00,
2013-02-10 10:30:00,50.0,19.5,30.14,SE,135,4.8,6.8,30,0.00,,,0.00,WUHU216TE923,2013-02-10 15:30:00,
2013-02-10 10:35:00,50.0,19.5,30.14,SE,135,4.3,4.9,30,0.00,,,0.00,WUHU216TE923,2013-02-10 15:35:00,
2013-02-10 10:40:00,50.2,19.7,30.14,SE,135,3.4,4.9,30,0.00,,,0.00,WUHU216TE923,2013-02-10 15:40:00,
2013-02-10 10:45:00,50.4,19.9,30.14,SE,135,3.0,4.2,30,0.00,,,0.00,WUHU216TE923,2013-02-10 15:45:00,
2013-02-10 10:50:00,50.5,20.0,30.14,SE,135,2.8,3.6,30,0.00,,,0.00,WUHU216TE923,2013-02-10 15:50:00,
2013-02-10 10:55:00,50.7,20.2,30.14,ENE,68,3.0,3.0,30,0.00,,,0.00,WUHU216TE923,2013-02-10 15:55:00,
2013-02-10 11:00:00,51.1,19.7,30.14,SSE,158,3.4,6.2,29,0.00,,,0.00,WUHU216TE923,2013-02-10 16:00:00,
2013-02-10 11:05:00,52.0,21.3,30.14,South,180,2.5,6.2,30,0.00,,,0.00,WUHU216TE923,2013-02-10 16:05:00,
2013-02-10 11:10:00,53.4,20.9,30.13,SW,225,1.8,4.4,28,0.00,,,0.00,WUHU216TE923,2013-02-10 16:10:00,
2013-02-10 11:15:00,54.5,20.1,30.13,South,180,2.4,4.4,26,0.00,,,0.00,WUHU216TE923,2013-02-10 16:15:00,
2013-02-10 11:20:00,54.9,18.6,30.13,SW,225,3.3,7.6,24,0.00,,,0.00,WUHU216TE923,2013-02-10 16:20:00,
2013-02-10 11:25:00,54.5,18.3,30.13,SSW,203,3.9,7.6,24,0.00,,,0.00,WUHU216TE923,2013-02-10 16:25:00,
2013-02-10 11:30:00,54.7,18.5,30.14,SE,135,3.9,5.2,24,0.00,,,0.00,WUHU216TE923,2013-02-10 16:30:00,
2013-02-10 11:35:00,54.3,18.1,30.14,SE,135,3.4,5.2,24,0.00,,,0.00,WUHU216TE923,2013-02-10 16:35:00,
2013-02-10 11:40:00,53.8,16.7,30.14,SE,135,3.3,4.3,23,0.00,,,0.00,WUHU216TE923,2013-02-10 16:40:00,
2013-02-10 11:45:00,53.6,16.6,30.14,ESE,113,3.2,4.7,23,0.00,,,0.00,WUHU216TE923,2013-02-10 16:45:00,
2013-02-10 11:50:00,53.8,15.7,30.12,SE,135,3.8,7.8,22,0.00,,,0.00,WUHU216TE923,2013-02-10 16:50:00,
2013-02-10 11:55:00,53.8,16.7,30.12,NNE,23,3.7,7.8,23,0.00,,,0.00,WUHU216TE923,2013-02-10 16:55:00,
2013-02-10 12:00:00,53.6,15.6,30.12,SE,135,4.0,5.6,22,0.00,,,0.00,WUHU216TE923,2013-02-10 17:00:00,
2013-02-10 12:05:00,53.6,15.6,30.12,ENE,68,3.7,5.6,22,0.00,,,0.00,WUHU216TE923,2013-02-10 17:05:00,
2013-02-10 12:10:00,53.8,15.7,30.10,SW,225,3.7,4.9,22,0.00,,,0.00,WUHU216TE923,2013-02-10 17:10:00,
2013-02-10 12:15:00,53.8,15.7,30.10,SW,225,3.7,3.7,22,0.00,,,0.00,WUHU216TE923,2013-02-10 17:15:00,
2013-02-10 12:20:00,53.6,14.5,30.10,SW,225,4.2,4.2,21,0.00,,,0.00,WUHU216TE923,2013-02-10 17:20:00,
2013-02-10 12:25:00,53.8,14.7,30.10,SE,135,4.0,5.1,21,0.00,,,0.00,WUHU216TE923,2013-02-10 17:25:00,
2013-02-10 12:30:00,54.5,15.3,30.08,ESE,113,2.7,5.1,21,0.00,,,0.00,WUHU216TE923,2013-02-10 17:30:00,
2013-02-10 12:35:00,54.1,14.9,30.08,South,180,2.7,2.8,21,0.00,,,0.00,WUHU216TE923,2013-02-10 17:35:00,
2013-02-10 12:40:00,54.3,15.1,30.08,SE,135,2.8,3.0,21,0.00,,,0.00,WUHU216TE923,2013-02-10 17:40:00,
2013-02-10 12:45:00,54.0,13.7,30.08,WSW,248,3.7,6.9,20,0.00,,,0.00,WUHU216TE923,2013-02-10 17:45:00,
2013-02-10 12:50:00,53.6,13.4,30.07,SSE,158,4.0,6.9,20,0.00,,,0.00,WUHU216TE923,2013-02-10 17:50:00,
2013-02-10 12:55:00,53.4,14.3,30.07,SSE,158,3.6,5.9,21,0.00,,,0.00,WUHU216TE923,2013-02-10 17:55:00,
2013-02-10 13:00:00,53.6,14.5,30.07,SE,135,3.3,4.8,21,0.00,,,0.00,WUHU216TE923,2013-02-10 18:00:00,
2013-02-10 13:05:00,54.0,14.8,30.07,East,90,3.0,4.8,21,0.00,,,0.00,WUHU216TE923,2013-02-10 18:05:00,
2013-02-10 13:10:00,54.9,16.6,30.06,South,180,3.0,5.1,22,0.00,,,0.00,WUHU216TE923,2013-02-10 18:10:00,
2013-02-10 13:15:00,56.3,18.8,30.06,ENE,68,2.7,5.1,23,0.00,,,0.00,WUHU216TE923,2013-02-10 18:15:00,
2013-02-10 13:20:00,56.5,20.0,30.06,SSE,158,2.9,4.3,24,0.00,,,0.00,WUHU216TE923,2013-02-10 18:20:00,
2013-02-10 13:25:00,56.1,20.6,30.06,SE,135,2.9,4.3,25,0.00,,,0.00,WUHU216TE923,2013-02-10 18:25:00,
2013-02-10 13:30:00,54.9,23.0,30.05,SE,135,4.1,4.3,29,0.00,,,0.00,WUHU216TE923,2013-02-10 18:30:00,
2013-02-10 13:35:00,54.9,23.8,30.05,South,180,4.0,4.3,30,0.00,,,0.00,WUHU216TE923,2013-02-10 18:35:00,
2013-02-10 13:40:00,55.0,24.7,30.05,SSW,203,2.9,4.6,31,0.00,,,0.00,WUHU216TE923,2013-02-10 18:40:00,
2013-02-10 13:45:00,54.7,25.2,30.05,NNE,23,2.9,4.6,32,0.00,,,0.00,WUHU216TE923,2013-02-10 18:45:00,
2013-02-10 13:50:00,54.7,25.2,30.03,SSE,158,2.4,2.9,32,0.00,,,0.00,WUHU216TE923,2013-02-10 18:50:00,
2013-02-10 13:55:00,54.7,25.2,30.03,SSE,158,2.1,2.4,32,0.00,,,0.00,WUHU216TE923,2013-02-10 18:55:00,
2013-02-10 14:00:00,54.5,25.7,30.03,ESE,113,3.2,5.8,33,0.00,,,0.00,WUHU216TE923,2013-02-10 19:00:00,
2013-02-10 14:05:00,54.3,26.3,30.03,East,90,3.8,5.8,34,0.00,,,0.00,WUHU216TE923,2013-02-10 19:05:00,
2013-02-10 14:10:00,54.3,27.0,30.02,SW,225,3.8,5.7,35,0.00,,,0.00,WUHU216TE923,2013-02-10 19:10:00,
2013-02-10 14:15:00,54.0,26.7,30.02,South,180,3.7,5.7,35,0.00,,,0.00,WUHU216TE923,2013-02-10 19:15:00,
2013-02-10 14:20:00,53.8,27.2,30.02,SE,135,4.3,5.3,36,0.00,,,0.00,WUHU216TE923,2013-02-10 19:20:00,
2013-02-10 14:25:00,53.8,27.2,30.02,South,180,3.6,4.7,36,0.00,,,0.00,WUHU216TE923,2013-02-10 19:25:00,
2013-02-10 14:30:00,53.6,27.7,30.02,South,180,2.4,3.6,37,0.00,,,0.00,WUHU216TE923,2013-02-10 19:30:00,
2013-02-10 14:35:00,53.4,27.6,30.02,WSW,248,2.9,2.9,37,0.00,,,0.00,WUHU216TE923,2013-02-10 19:35:00,
2013-02-10 14:40:00,53.4,28.9,30.02,SSE,158,3.6,4.1,39,0.00,,,0.00,WUHU216TE923,2013-02-10 19:40:00,
2013-02-10 14:45:00,53.1,28.6,30.02,SSE,158,3.6,4.1,39,0.00,,,0.00,WUHU216TE923,2013-02-10 19:45:00,
2013-02-10 14:50:00,53.1,29.2,30.01,SE,135,3.5,3.6,40,0.00,,,0.00,WUHU216TE923,2013-02-10 19:50:00,
2013-02-10 14:55:00,52.9,29.7,30.01,SE,135,2.9,3.5,41,0.00,,,0.00,WUHU216TE923,2013-02-10 19:55:00,
2013-02-10 15:00:00,52.5,30.5,30.01,SE,135,2.5,5.4,43,0.00,,,0.00,WUHU216TE923,2013-02-10 20:00:00,
2013-02-10 15:05:00,52.0,30.6,30.01,ESE,113,2.9,5.4,44,0.00,,,0.00,WUHU216TE923,2013-02-10 20:05:00,
2013-02-10 15:10:00,51.4,31.2,30.00,SE,135,3.4,3.4,46,0.00,,,0.00,WUHU216TE923,2013-02-10 20:10:00,
2013-02-10 15:15:00,51.1,32.0,30.00,SE,135,3.3,8.0,48,0.00,,,0.00,WUHU216TE923,2013-02-10 20:15:00,
2013-02-10 15:20:00,50.7,32.2,30.00,SSE,158,3.5,8.0,49,0.00,,,0.00,WUHU216TE923,2013-02-10 20:20:00,
2013-02-10 15:25:00,50.4,32.9,30.00,SSE,158,3.6,4.7,51,0.00,,,0.00,WUHU216TE923,2013-02-10 20:25:00,
2013-02-10 15:30:00,49.8,33.4,30.01,SE,135,2.8,4.7,53,0.00,,,0.00,WUHU216TE923,2013-02-10 20:30:00,
2013-02-10 15:35:00,49.6,33.7,30.01,ESE,113,2.9,3.7,54,0.00,,,0.00,WUHU216TE923,2013-02-10 20:35:00,
2013-02-10 15:40:00,49.6,34.1,30.01,ESE,113,2.8,3.7,55,0.00,,,0.00,WUHU216TE923,2013-02-10 20:40:00,
2013-02-10 15:45:00,49.5,34.0,30.01,SW,225,2.3,2.8,55,0.00,,,0.00,WUHU216TE923,2013-02-10 20:45:00,
2013-02-10 15:50:00,49.3,34.3,29.99,ENE,68,1.3,2.5,56,0.00,,,0.00,WUHU216TE923,2013-02-10 20:50:00,
2013-02-10 15:55:00,49.1,34.1,29.99,NNW,338,1.0,2.5,56,0.00,,,0.00,WUHU216TE923,2013-02-10 20:55:00,
2013-02-10 16:00:00,48.9,33.9,29.99,SE,135,0.7,2.0,56,0.00,,,0.00,WUHU216TE923,2013-02-10 21:00:00,
2013-02-10 16:05:00,48.7,34.2,29.99,SE,135,0.6,2.0,57,0.02,,,0.02,WUHU216TE923,2013-02-10 21:05:00,
2013-02-10 16:10:00,48.4,34.4,29.99,South,180,1.2,1.2,58,0.02,,,0.02,WUHU216TE923,2013-02-10 21:10:00,
2013-02-10 16:15:00,48.2,34.2,29.99,SE,135,1.1,1.7,58,0.02,,,0.02,WUHU216TE923,2013-02-10 21:15:00,
2013-02-10 16:20:00,48.0,34.4,29.99,SE,135,1.1,2.4,59,0.05,,,0.05,WUHU216TE923,2013-02-10 21:20:00,
2013-02-10 16:25:00,47.8,34.7,29.99,SE,135,1.6,2.4,60,0.08,,,0.08,WUHU216TE923,2013-02-10 21:25:00,
2013-02-10 16:30:00,47.7,35.0,29.99,South,180,1.5,1.6,61,0.08,,,0.08,WUHU216TE923,2013-02-10 21:30:00,
2013-02-10 16:35:00,47.5,35.2,29.99,ESE,113,0.9,1.5,62,0.11,,,0.11,WUHU216TE923,2013-02-10 21:35:00,
2013-02-10 16:40:00,47.5,35.6,29.99,NNE,23,1.1,1.3,63,0.11,,,0.11,WUHU216TE923,2013-02-10 21:40:00,
2013-02-10 16:45:00,47.3,35.4,29.99,NNE,23,1.0,1.3,63,0.14,,,0.14,WUHU216TE923,2013-02-10 21:45:00,
2013-02-10 16:50:00,47.3,35.8,30.00,NW,315,0.3,1.0,64,0.14,,,0.14,WUHU216TE923,2013-02-10 21:50:00,
2013-02-10 16:55:00,47.3,35.8,30.00,NW,315,0.1,0.3,64,0.17,,,0.17,WUHU216TE923,2013-02-10 21:55:00,
2013-02-10 17:00:00,47.1,36.0,30.00,NW,315,0.0,0.1,65,0.17,,,0.19,WUHU216TE923,2013-02-10 22:00:00,
2013-02-10 17:05:00,47.1,36.4,30.00,NW,315,0.0,0.0,66,0.20,,,0.22,WUHU216TE923,2013-02-10 22:05:00,
2013-02-10 17:10:00,47.1,36.4,30.01,NNW,338,0.0,0.0,66,0.20,,,0.25,WUHU216TE923,2013-02-10 22:10:00,
2013-02-10 17:15:00,47.1,36.8,30.01,NNW,338,0.0,0.0,67,0.20,,,0.28,WUHU216TE923,2013-02-10 22:15:00,
2013-02-10 17:20:00,47.1,36.8,30.01,NW,315,0.1,0.1,67,0.22,,,0.30,WUHU216TE923,2013-02-10 22:20:00,
2013-02-10 17:25:00,46.9,37.0,30.01,WSW,248,0.3,0.3,68,0.22,,,0.33,WUHU216TE923,2013-02-10 22:25:00,
2013-02-10 17:30:00,46.9,37.0,30.02,SE,135,0.5,1.3,68,0.25,,,0.36,WUHU216TE923,2013-02-10 22:30:00,
2013-02-10 17:35:00,46.9,37.4,30.02,NE,45,0.2,1.3,69,0.28,,,0.39,WUHU216TE923,2013-02-10 22:35:00,
2013-02-10 17:40:00,46.9,37.4,30.02,NNW,338,0.4,0.4,69,0.27,,,0.41,WUHU216TE923,2013-02-10 22:40:00,
2013-02-10 17:45:00,46.9,37.7,30.02,NE,45,0.4,1.1,70,0.30,,,0.44,WUHU216TE923,2013-02-10 22:45:00,
2013-02-10 17:50:00,46.9,37.7,30.02,NNW,338,0.5,1.1,70,0.25,,,0.44,WUHU216TE923,2013-02-10 22:50:00,
2013-02-10 17:55:00,46.9,37.7,30.02,NNE,23,0.8,0.8,70,0.25,,,0.47,WUHU216TE923,2013-02-10 22:55:00,
2013-02-10 18:00:00,46.8,37.6,30.02,West,270,0.5,0.8,70,0.25,,,0.47,WUHU216TE923,2013-02-10 23:00:00,
2013-02-10 18:05:00,46.9,38.1,30.02,NNE,23,0.2,0.5,71,0.25,,,0.50,WUHU216TE923,2013-02-10 23:05:00,
2013-02-10 18:10:00,46.9,38.1,30.04,NNE,23,0.5,0.5,71,0.22,,,0.52,WUHU216TE923,2013-02-10 23:10:00,
2013-02-10 18:15:00,46.8,38.0,30.04,NE,45,0.4,0.5,71,0.25,,,0.55,WUHU216TE923,2013-02-10 23:15:00,
2013-02-10 18:19:00,46.8,38.0,30.04,NE,45,0.1,0.4,71,0.25,,,0.58,WUHU216TE923,2013-02-10 23:19:00,
2013-02-10 18:24:00,46.6,37.8,30.04,SE,135,0.2,1.2,71,0.25,,,0.61,WUHU216TE923,2013-02-10 23:24:00,
2013-02-10 18:29:00,46.6,38.1,30.04,North,0,0.3,1.2,72,0.22,,,0.61,WUHU216TE923,2013-02-10 23:29:00,
2013-02-10 18:34:00,46.6,38.1,30.04,NNW,338,0.2,0.3,72,0.23,,,0.64,WUHU216TE923,2013-02-10 23:34:00,
2013-02-10 18:39:00,46.8,38.3,30.04,NW,315,0.2,0.2,72,0.20,,,0.64,WUHU216TE923,2013-02-10 23:39:00,
2013-02-10 18:44:00,46.6,38.5,30.04,NW,315,0.2,1.0,73,0.23,,,0.67,WUHU216TE923,2013-02-10 23:44:00,
2013-02-10 18:49:00,46.6,38.8,30.07,WSW,248,0.5,1.0,74,0.20,,,0.67,WUHU216TE923,2013-02-10 23:49:00,
2013-02-10 18:54:00,46.6,39.2,30.07,ESE,113,0.8,3.0,75,0.19,,,0.69,WUHU216TE923,2013-02-10 23:54:00,
2013-02-10 18:59:00,46.6,39.2,30.07,SW,225,1.1,3.0,75,0.19,,,0.69,WUHU216TE923,2013-02-10 23:59:00,
2013-02-10 19:04:00,46.6,39.2,30.07,SE,135,1.3,4.6,75,0.20,,,0.72,WUHU216TE923,2013-02-11 00:04:00,
2013-02-10 19:09:00,46.6,39.5,30.05,WSW,248,1.5,4.6,76,0.17,,,0.72,WUHU216TE923,2013-02-11 00:09:00,
2013-02-10 19:14:00,46.6,39.5,30.05,East,90,1.6,2.4,76,0.17,,,0.75,WUHU216TE923,2013-02-11 00:14:00,
2013-02-10 19:19:00,46.8,39.7,30.05,South,180,1.2,2.4,76,0.14,,,0.75,WUHU216TE923,2013-02-11 00:19:00,
2013-02-10 19:24:00,46.8,39.7,30.05,ENE,68,1.3,1.3,76,0.14,,,0.78,WUHU216TE923,2013-02-11 00:24:00,
2013-02-10 19:29:00,46.8,39.7,30.07,NW,315,0.5,1.3,76,0.14,,,0.78,WUHU216TE923,2013-02-11 00:29:00,
2013-02-10 19:34:00,46.8,39.7,30.07,ESE,113,0.5,1.2,76,0.11,,,0.78,WUHU216TE923,2013-02-11 00:34:00,
2013-02-10 19:39:00,46.8,40.0,30.07,NE,45,0.7,1.2,77,0.13,,,0.80,WUHU216TE923,2013-02-11 00:39:00,
2013-02-10 19:44:00,46.9,40.1,30.07,SE,135,0.7,1.3,77,0.13,,,0.80,WUHU216TE923,2013-02-11 00:44:00,
2013-02-10 19:49:00,47.8,41.6,30.08,SSE,158,1.0,1.9,79,0.11,,,0.80,WUHU216TE923,2013-02-11 00:49:00,
2013-02-10 19:54:00,48.2,42.0,30.08,SW,225,1.4,2.3,79,0.14,,,0.83,WUHU216TE923,2013-02-11 00:54:00,
2013-02-10 19:59:00,48.4,42.2,30.08,SE,135,1.5,2.3,79,0.11,,,0.83,WUHU216TE923,2013-02-11 00:59:00,
2013-02-10 20:04:00,48.4,41.9,30.08,ESE,113,1.3,3.0,78,0.08,,,0.83,WUHU216TE923,2013-02-11 01:04:00,
2013-02-10 20:09:00,48.6,42.1,30.05,NE,45,1.3,3.0,78,0.08,,,0.83,WUHU216TE923,2013-02-11 01:09:00,
2013-02-10 20:14:00,48.7,42.5,30.05,ESE,113,1.5,2.1,79,0.08,,,0.86,WUHU216TE923,2013-02-11 01:14:00,
2013-02-10 20:19:00,48.9,42.7,30.05,South,180,2.0,2.9,79,0.08,,,0.86,WUHU216TE923,2013-02-11 01:19:00,
2013-02-10 20:24:00,48.9,42.7,30.05,WSW,248,1.8,3.0,79,0.08,,,0.86,WUHU216TE923,2013-02-11 01:24:00,
2013-02-10 20:29:00,49.1,42.9,30.05,SSE,158,1.0,3.0,79,0.08,,,0.86,WUHU216TE923,2013-02-11 01:29:00,
2013-02-10 20:34:00,49.3,43.1,30.05,South,180,1.0,1.9,79,0.06,,,0.86,WUHU216TE923,2013-02-11 01:34:00,
2013-02-10 20:39:00,49.5,43.3,30.05,South,180,1.2,1.9,79,0.09,,,0.89,WUHU216TE923,2013-02-11 01:39:00,
2013-02-10 20:44:00,49.5,43.3,30.05,South,180,1.2,1.9,79,0.06,,,0.89,WUHU216TE923,2013-02-11 01:44:00,
2013-02-10 20:49:00,50.0,43.8,30.02,SSE,158,1.9,2.9,79,0.06,,,0.89,WUHU216TE923,2013-02-11 01:49:00,
2013-02-10 20:54:00,50.0,44.1,30.02,ESE,113,2.1,4.4,80,0.06,,,0.89,WUHU216TE923,2013-02-11 01:54:00,
2013-02-10 20:59:00,50.2,44.3,30.02,South,180,1.9,4.4,80,0.06,,,0.89,WUHU216TE923,2013-02-11 01:59:00,
2013-02-10 21:04:00,50.5,44.9,30.02,South,180,1.6,3.2,81,0.08,,,0.91,WUHU216TE923,2013-02-11 02:04:00,
2013-02-10 21:09:00,50.7,45.1,30.02,West,270,2.3,7.1,81,0.05,,,0.91,WUHU216TE923,2013-02-11 02:09:00,
2013-02-10 21:14:00,50.9,45.3,30.02,SE,135,2.7,7.1,81,0.05,,,0.91,WUHU216TE923,2013-02-11 02:14:00,
2013-02-10 21:19:00,51.1,45.8,30.02,SW,225,2.9,2.9,82,0.05,,,0.91,WUHU216TE923,2013-02-11 02:19:00,
2013-02-10 21:24:00,51.3,46.0,30.02,ESE,113,2.8,4.7,82,0.08,,,0.94,WUHU216TE923,2013-02-11 02:24:00,
2013-02-10 21:29:00,51.8,46.5,29.97,SSE,158,3.9,5.8,82,0.05,,,0.94,WUHU216TE923,2013-02-11 02:29:00,
2013-02-10 21:34:00,51.8,46.5,29.97,SSE,158,4.3,7.9,82,0.05,,,0.94,WUHU216TE923,2013-02-11 02:34:00,
2013-02-10 21:39:00,52.0,46.7,29.97,SW,225,4.9,11.0,82,0.05,,,0.94,WUHU216TE923,2013-02-11 02:39:00,
2013-02-10 21:44:00,52.2,46.9,29.97,SW,225,4.8,11.0,82,0.05,,,0.94,WUHU216TE923,2013-02-11 02:44:00,
2013-02-10 21:49:00,51.8,46.2,29.97,NE,45,3.6,4.8,81,0.05,,,0.94,WUHU216TE923,2013-02-11 02:49:00,
2013-02-10 21:54:00,52.0,46.4,29.97,SE,135,3.0,4.6,81,0.03,,,0.94,WUHU216TE923,2013-02-11 02:54:00,
2013-02-10 21:59:00,52.2,46.6,29.97,SE,135,3.1,3.9,81,0.03,,,0.94,WUHU216TE923,2013-02-11 02:59:00,
2013-02-10 22:04:00,52.3,46.4,29.97,SSW,203,3.1,10.2,80,0.03,,,0.94,WUHU216TE923,2013-02-11 03:04:00,
2013-02-10 22:09:00,52.5,46.2,29.96,WSW,248,3.1,10.2,79,0.03,,,0.94,WUHU216TE923,2013-02-11 03:09:00,
2013-02-10 22:14:00,52.5,46.2,29.96,SE,135,2.9,4.6,79,0.03,,,0.94,WUHU216TE923,2013-02-11 03:14:00,
2013-02-10 22:19:00,52.5,46.2,29.96,SSW,203,2.9,5.9,79,0.00,,,0.94,WUHU216TE923,2013-02-11 03:19:00,
2013-02-10 22:24:00,52.7,46.4,29.96,South,180,3.3,6.3,79,0.00,,,0.94,WUHU216TE923,2013-02-11 03:24:00,
2013-02-10 22:29:00,52.5,45.9,29.96,SW,225,2.6,6.3,78,0.00,,,0.94,WUHU216TE923,2013-02-11 03:29:00,
2013-02-10 22:34:00,52.7,46.1,29.96,NNW,338,2.0,2.6,78,0.00,,,0.94,WUHU216TE923,2013-02-11 03:34:00,
2013-02-10 22:39:00,52.5,45.9,29.96,SSE,158,1.6,2.2,78,0.00,,,0.94,WUHU216TE923,2013-02-11 03:39:00,
2013-02-10 22:44:00,52.5,45.9,29.96,ESE,113,1.6,3.5,78,0.00,,,0.94,WUHU216TE923,2013-02-11 03:44:00,
2013-02-10 22:49:00,52.5,45.6,29.97,SE,135,1.7,3.5,77,0.00,,,0.94,WUHU216TE923,2013-02-11 03:49:00,
2013-02-10 22:54:00,52.9,46.0,29.97,NE,45,1.9,3.0,77,0.00,,,0.94,WUHU216TE923,2013-02-11 03:54:00,
2013-02-10 22:59:00,52.7,45.4,29.97,SSE,158,1.6,3.0,76,0.00,,,0.94,WUHU216TE923,2013-02-11 03:59:00,
2013-02-10 23:04:00,52.9,45.6,29.97,SE,135,1.5,3.4,76,0.00,,,0.94,WUHU216TE923,2013-02-11 04:04:00,
2013-02-10 23:09:00,53.1,45.8,29.96,SE,135,1.9,3.4,76,0.00,,,0.94,WUHU216TE923,2013-02-11 04:09:00,
2013-02-10 23:14:00,53.1,45.8,29.96,SSE,158,2.1,2.1,76,0.00,,,0.94,WUHU216TE923,2013-02-11 04:14:00,
2013-02-10 23:19:00,53.1,45.8,29.96,ENE,68,1.8,2.3,76,0.00,,,0.94,WUHU216TE923,2013-02-11 04:19:00,
2013-02-10 23:24:00,53.2,45.9,29.96,SE,135,2.4,6.3,76,0.00,,,0.94,WUHU216TE923,2013-02-11 04:24:00,
2013-02-10 23:29:00,53.2,45.6,29.94,South,180,3.5,6.3,75,0.00,,,0.94,WUHU216TE923,2013-02-11 04:29:00,
2013-02-10 23:34:00,53.2,45.6,29.94,SSW,203,3.2,3.5,75,0.00,,,0.94,WUHU216TE923,2013-02-11 04:34:00,
2013-02-10 23:39:00,53.1,45.5,29.94,South,180,2.1,4.5,75,0.00,,,0.94,WUHU216TE923,2013-02-11 04:39:00,
2013-02-10 23:44:00,53.1,45.5,29.94,WSW,248,1.9,4.5,75,0.00,,,0.94,WUHU216TE923,2013-02-11 04:44:00,
2013-02-10 23:49:00,53.1,45.5,29.95,SE,135,2.0,2.3,75,0.00,,,0.94,WUHU216TE923,2013-02-11 04:49:00,
2013-02-10 23:54:00,53.1,45.5,29.95,SSE,158,1.5,2.0,75,0.00,,,0.94,WUHU216TE923,2013-02-11 04:54:00,
2013-02-10 23:59:00,53.1,45.5,29.95,SE,135,1.4,2.2,75,0.00,,,0.94,WUHU216TE923,2013-02-11 04:59:00,